Regional Weather Roundup
Issued by NWS Lake Charles, LA

Home | Current Version | Previous Version | Text Only | Print | Product List | Glossary On
Versions: 1 2 3 4 5 6 7 8 9 10 11 12 13 14 15 16 17 18 19 20 21 22 23 24 25 26 27 28 29
000
ASUS44 KLCH 252210
RWRLCH
RWRLCH
REGIONAL WEATHER ROUNDUP
NATIONAL WEATHER SERVICE LAKE CHARLES LA
500 PM CDT SAT OCT 25 2014

Note: "fair" indicates few or no clouds below 12,000 feet with no
significant weather and/or obstructions to visibility.


ACROSS SOUTHEAST TEXAS

CITY           SKY/WX    TMP DP  RH WIND       PRES   REMARKS
BEAUMONT       SUNNY     81  53  37 S6        30.10S
BEAUMONT CITY    N/A     82  51  34 E3        30.10S
ORANGE         CLEAR     80  52  37 S3        30.11S
JASPER         SUNNY     81  53  37 SW5       30.12S
$$

ACROSS CENTRAL LOUISIANA

CITY           SKY/WX    TMP DP  RH WIND       PRES   REMARKS
LEESVILLE      SUNNY     82  49  32 W6        30.09F
FULLERTON        N/A     85  51  31 CALM      30.06F
ALEXANDRIA INT SUNNY     82  52  35 W3        30.07S
ESLER FIELD    SUNNY     80  53  39 NW3       30.09S
DERIDDER         N/A     81  47  29 CALM      30.11F
OAKDALE        CLEAR     81  52  36 CALM      30.10S
OPELOUSAS        N/A     80  49  33 CALM      30.08F
$$

ACROSS SOUTHWEST AND SOUTH CENTRAL LOUISIANA

CITY           SKY/WX    TMP DP  RH WIND       PRES   REMARKS
SULPHUR        CLEAR     81  52  36 S3        30.10S
LAKE CHARLES   SUNNY     81  50  33 CALM      30.09F
CHENNAULT INT  NOT AVBL
CAMERON PHI    CLEAR     73  57  56 SW6       30.14S
DEQUINCY         N/A     80  52  38 SW3       30.10S
JENNINGS         N/A     81  42  25 CALM      30.09S
LAFAYETTE      SUNNY     82  45  27 NW5       30.09S
NEW IBERIA     SUNNY     83  49  30 NW3       30.09F
ABBEVILLE        N/A     81  46  29 NW3       30.09S
PATTERSON      SUNNY     79  52  38 N6        30.12S
SALT POINT       N/A     75  62  64 SW3       30.08F
$$

SELECTED SITES ACROSS THE REGION

CITY           SKY/WX    TMP DP  RH WIND       PRES   REMARKS
HOUSTON BUSH   SUNNY     83  57  41 CALM      30.09F
HOUSTON HOBBY  SUNNY     83  52  34 CALM      30.09S
GALVESTON      SUNNY     76  60  57 SE7       30.11F
COLLEGE STAT   SUNNY     84  60  44 S6        30.09S
CONROE         SUNNY     82  60  47 SE5       30.10S
HUNTSVILLE     SUNNY     84  59  42 CALM      30.09S
LUFKIN         SUNNY     85  61  44 CALM      30.09F
SHREVEPORT     SUNNY     83  63  50 SW6       30.06F
MONROE         SUNNY     82  59  45 W8        30.07S
NATCHEZ MS     SUNNY     79  55  44 W5        30.09S
BATON ROUGE    SUNNY     80  53  39 W7        30.08S
N.O. INTL ARPT SUNNY     79  55  43 NW8       30.07F
SLIDELL        SUNNY     77  59  53 SW6       30.05F
$$

MARINE REPORTS

STATION/POSITION TIME  TEMP    WIND        PRES    VSBY  WAVE
                       AIR SEA DIR/SP/G                  HT/PER
                 (UTC) (F)     (DEG/KT/KT) (MB)    (MI)  (FT/S)
BUOY 30 S HIGH I 2200   73 78  140/  4/  6 1019.5F         1/ 7
SEA RIM ST PARK  2200   73     160/  5/  7 1020.1S
PORT ARTHUR      2200      73  140/  3/  4 1019.5R
SABINE PASS N    2200   74 72  200/  6/  8 1019.7S
TEXAS POINT      2200   72 72  180/  6/  7 1019.8S
CALCASIEU PASS   2200   73 73  240/  6/  7   N/A
LK CHARLES BEACH 2200   82 75              1019.1R
MARSH ISLAND     NOT AVBL
FRESH WATER LOCK 2200   74 73  210/  5/  7 1019.1F
AMERADA PASS     2200   74 71  270/  2/  4 1018.9S
$$



USA.gov is the U.S. government's official web portal to all federal, state and local government web resources and services.